Regional Weather Roundup
Issued by NWS Memphis, TN

Home | Current Version | Previous Version | Text Only | Print | Product List | Glossary On
Versions: 1 2 3 4 5 6 7 8 9 10 11 12 13 14 15 16 17 18 19 20 21 22 23 24 25 26 27 28 29 30 31 32 33 34 35 36 37 38 39 40 41 42 43 44 45 46 47 48 49 50
000
ASUS44 KMEG 260510
RWRMEG
MEMPHIS CWA HOURLY WEATHER ROUNDUP
NATIONAL WEATHER SERVICE MEMPHIS TN
1200 AM CDT WED JUL 26 2017

...WEST TENNESSEE...

CITY           SKY/WX    TMP DP  RH WIND       PRES   REMARKS
MEMPHIS INTL   CLEAR     82  75  79 S10       30.09R
NWS MEMPHIS      N/A     80 N/A N/A MISG        N/A
JACKSON        CLEAR     77  77 100 E3        30.09R
COVINGTON      CLEAR     77  75  94 CALM      30.08S
SOMERVILLE       N/A     77  73  88 CALM      30.08S
BOLIVAR        CLEAR     73  72  94 CALM      30.09S
LEXINGTON      CLOUDY    81  75  83 CALM      30.09S
SELMER         CLEAR     75  73  94 CALM      30.09S
SAVANNAH       CLEAR     77  75  94 CALM      30.08F
UNION CITY       N/A     81  77  89 CALM      30.07F
PARIS          PTCLDY    79  75  89 CALM      30.08F
HUNTINGDON     MOCLDY    81  77  89 CALM      30.09S


...EASTERN ARKANSAS...

CITY           SKY/WX    TMP DP  RH WIND       PRES   REMARKS
JONESBORO      CLEAR     79  78  97 CALM      30.06R
WEST MEMPHIS   CLEAR     77  76  96 S5        30.07R
BATESVILLE     CLEAR     82  73  74 S5        30.06S
WALNUT RIDGE   CLEAR     81  75  83 S6        30.06R
BLYTHEVILLE    CLEAR     81  78  91 S3        30.07S
SEARCY         CLEAR     79  79 100 CALM      30.07R
STUTTGART      CLEAR     82  64  54 SE9       30.08R
PINE BLUFF     CLEAR     81  75  82 SW5       30.07R
MONTICELLO     CLEAR     81  73  76 CALM      30.09R


...NORTH MISSISSIPPI...

CITY           SKY/WX    TMP DP  RH WIND       PRES   REMARKS
TUPELO         CLEAR     79  73  82 CALM      30.09S
OXFORD         CLEAR     73  73 100 SW3       30.12R
BATESVILLE     CLEAR     75  73  92 CALM      30.10R
TUNICA           N/A     75  73  94 SE3       30.09R
CLARKSDALE       N/A     79  79 100 S6        30.08R
CORINTH          N/A    N/A N/A N/A MISG      30.09S
GREENWOOD      CLEAR     74  73  97 SW6       30.10R
STARKVILLE     PTCLDY    73  72  94 CALM      30.12R FOG
GOLDEN TRIANGL PTCLDY    81  72  74 MISG      30.06S


...SOUTHEAST MISSOURI...

CITY           SKY/WX    TMP DP  RH WIND       PRES   REMARKS
KENNETT        CLEAR     79  77  94 S3        30.05F FOG
MALDEN         CLEAR     81  73  78 CALM      30.08S
WEST PLAINS    CLEAR     80  72  76 SW5       30.10S
POPLAR BLUFF   CLEAR     79  75  87 SE5       30.06S
CAPE GIRARDEAU CLEAR     78  74  87 E5        30.07S


...NORTHWEST ALABAMA...

CITY           SKY/WX    TMP DP  RH WIND       PRES   REMARKS
MUSCLE SHOALS  CLEAR     75  71  87 SE3       30.11S


...MIDDLE TENNESSEE...

CITY           SKY/WX    TMP DP  RH WIND       PRES   REMARKS
NASHVILLE      PTCLDY    81  73  76 NE3       30.11R
CLARKSVILLE    PTCLDY    76  71  85 E5        30.11S
COLUMBIA       PTCLDY    77  77 100 CALM      30.09S


...WESTERN KENTUCKY...

CITY           SKY/WX    TMP DP  RH WIND       PRES   REMARKS
PADUCAH        CLEAR     76  73  91 SE3       30.08S
FORT CAMPBELL  CLEAR     76  73  90 CALM      30.10S


...CENTRAL ARKANSAS...

CITY           SKY/WX    TMP DP  RH WIND       PRES   REMARKS
LITTLE ROCK    CLEAR     83  76  79 SW8       30.06R HX  91


SKY/WX REPORTED AS FAIR MEANS FEW OR NO CLOUDS BELOW
12 THOUSAND FEET.





USA.gov is the U.S. government's official web portal to all federal, state and local government web resources and services.